Year,Month,Day,Hour,Minute,Value (Times are PST for temperature in C)
2019,02,05,00,00,-16.80
2019,02,05,00,01,-16.90
2019,02,05,00,02,-17.00
2019,02,05,00,03,-17.00
2019,02,05,00,04,-17.10
2019,02,05,00,05,-17.10
2019,02,05,00,06,-17.20
2019,02,05,00,07,-17.30
2019,02,05,00,08,-17.40
2019,02,05,00,09,-17.40
2019,02,05,00,10,-17.50
2019,02,05,00,11,-17.50
2019,02,05,00,12,-17.60
2019,02,05,00,13,-17.60
2019,02,05,00,14,-17.60
2019,02,05,00,15,-17.70
2019,02,05,00,16,-17.70
2019,02,05,00,17,-17.80
2019,02,05,00,18,-17.80
2019,02,05,00,19,-17.80
2019,02,05,00,20,-17.80
2019,02,05,00,21,-17.90
2019,02,05,00,22,-17.90
2019,02,05,00,23,-17.90
2019,02,05,00,24,-17.90
2019,02,05,00,25,-17.90
2019,02,05,00,26,-17.90
2019,02,05,00,27,-17.90
2019,02,05,00,28,-17.90
2019,02,05,00,29,-17.90
2019,02,05,00,30,-17.90
2019,02,05,00,31,-17.90
2019,02,05,00,32,-17.90
2019,02,05,00,33,-18.00
2019,02,05,00,34,-18.00
2019,02,05,00,35,-18.00
2019,02,05,00,36,-18.00
2019,02,05,00,37,-18.10
2019,02,05,00,38,-18.10
2019,02,05,00,39,-18.10
2019,02,05,00,40,-18.20
2019,02,05,00,41,-18.20
2019,02,05,00,42,-18.30
2019,02,05,00,43,-18.30
2019,02,05,00,44,-18.30
2019,02,05,00,45,-18.30
2019,02,05,00,46,-18.40
2019,02,05,00,47,-18.40
2019,02,05,00,48,-18.40
2019,02,05,00,49,-18.40
2019,02,05,00,50,-18.50
2019,02,05,00,51,-18.50
2019,02,05,00,52,-18.60
2019,02,05,00,53,-18.60
2019,02,05,00,54,-18.70
2019,02,05,00,55,-18.70
2019,02,05,00,56,-18.70
2019,02,05,00,57,-18.70
2019,02,05,00,58,-18.70
2019,02,05,00,59,-18.70
2019,02,05,01,00,-18.80
2019,02,05,01,01,-18.80
2019,02,05,01,02,-18.80
2019,02,05,01,03,-18.90
2019,02,05,01,04,-18.90
2019,02,05,01,05,-19.00
2019,02,05,01,06,-19.00
2019,02,05,01,07,-19.10
2019,02,05,01,08,-19.10
2019,02,05,01,09,-19.10
2019,02,05,01,10,-19.10
2019,02,05,01,11,-19.10
2019,02,05,01,12,-19.20
2019,02,05,01,13,-19.10
2019,02,05,01,14,-19.20
2019,02,05,01,15,-19.20
2019,02,05,01,16,-19.20
2019,02,05,01,17,-19.20
2019,02,05,01,18,-19.20
2019,02,05,01,19,-19.20
2019,02,05,01,20,-19.20
2019,02,05,01,21,-19.30
2019,02,05,01,22,-19.30
2019,02,05,01,23,-19.30
2019,02,05,01,24,-19.30
2019,02,05,01,25,-19.30
2019,02,05,01,26,-19.40
2019,02,05,01,27,-19.40
2019,02,05,01,28,-19.40
2019,02,05,01,29,-19.40
2019,02,05,01,30,-19.40
2019,02,05,01,31,-19.50
2019,02,05,01,32,-19.50
2019,02,05,01,33,-19.50
2019,02,05,01,34,-19.50
2019,02,05,01,35,-19.50
2019,02,05,01,36,-19.50
2019,02,05,01,37,-19.50
2019,02,05,01,38,-19.60
2019,02,05,01,39,-19.60
2019,02,05,01,40,-19.60
2019,02,05,01,41,-19.60
2019,02,05,01,42,-19.60
2019,02,05,01,43,-19.70
2019,02,05,01,44,-19.70
2019,02,05,01,45,-19.70
2019,02,05,01,46,-19.80
2019,02,05,01,47,-19.80
2019,02,05,01,48,-19.80
2019,02,05,01,49,-19.80
2019,02,05,01,50,-19.90
2019,02,05,01,51,-19.90
2019,02,05,01,52,-19.90
2019,02,05,01,53,-19.90
2019,02,05,01,54,-20.00
2019,02,05,01,55,-20.00
2019,02,05,01,56,-20.00
2019,02,05,01,57,-20.00
2019,02,05,01,58,-20.00
2019,02,05,01,59,-20.10
2019,02,05,02,00,-20.10
2019,02,05,02,01,-20.10
2019,02,05,02,02,-20.10
2019,02,05,02,03,-20.10
2019,02,05,02,04,-20.10
2019,02,05,02,05,-20.10
2019,02,05,02,06,-20.10
2019,02,05,02,07,-20.20
2019,02,05,02,08,-20.30
2019,02,05,02,09,-20.30
2019,02,05,02,10,-20.30
2019,02,05,02,11,-20.40
2019,02,05,02,12,-20.40
2019,02,05,02,13,-20.40
2019,02,05,02,14,-20.40
2019,02,05,02,15,-20.40
2019,02,05,02,16,-20.40
2019,02,05,02,17,-20.40
2019,02,05,02,18,-20.70
2019,02,05,02,19,-20.80
2019,02,05,02,20,-20.90
2019,02,05,02,21,-21.00
2019,02,05,02,22,-21.10
2019,02,05,02,23,-21.10
2019,02,05,02,24,-21.20
2019,02,05,02,25,-21.30
2019,02,05,02,26,-21.40
2019,02,05,02,27,-21.40
2019,02,05,02,28,-21.40
2019,02,05,02,29,-21.50
2019,02,05,02,30,-21.50
2019,02,05,02,31,-21.50
2019,02,05,02,32,-21.50
2019,02,05,02,33,-21.60
2019,02,05,02,34,-21.60
2019,02,05,02,35,-21.60
2019,02,05,02,36,-21.60
2019,02,05,02,37,-21.70
2019,02,05,02,38,-21.70
2019,02,05,02,39,-21.70
2019,02,05,02,40,-21.70
2019,02,05,02,41,-21.70
2019,02,05,02,42,-21.70
2019,02,05,02,43,-21.70
2019,02,05,02,44,-21.70
2019,02,05,02,45,-21.70
2019,02,05,02,46,-21.70
2019,02,05,02,47,-21.70
2019,02,05,02,48,-21.70
2019,02,05,02,49,-21.60
2019,02,05,02,50,-21.60
2019,02,05,02,51,-21.70
2019,02,05,02,52,-21.90
2019,02,05,02,53,-21.90
2019,02,05,02,54,-22.00
2019,02,05,02,55,-22.00
2019,02,05,02,56,-22.10
2019,02,05,02,57,-22.10
2019,02,05,02,58,-22.10
2019,02,05,02,59,-22.10
2019,02,05,03,00,-22.10
2019,02,05,03,01,-22.10
2019,02,05,03,02,-22.10
2019,02,05,03,03,-22.10
2019,02,05,03,04,-22.10
2019,02,05,03,05,-22.10
2019,02,05,03,06,-22.10
2019,02,05,03,07,-22.10
2019,02,05,03,08,-22.10
2019,02,05,03,09,-22.10
2019,02,05,03,10,-22.00
2019,02,05,03,11,-22.00
2019,02,05,03,12,-22.00
2019,02,05,03,13,-22.00
2019,02,05,03,14,-21.90
2019,02,05,03,15,-21.80
2019,02,05,03,16,-21.60
2019,02,05,03,17,-21.50
2019,02,05,03,18,-21.30
2019,02,05,03,19,-21.10
2019,02,05,03,20,-21.00
2019,02,05,03,21,-20.90
2019,02,05,03,22,-20.90
2019,02,05,03,23,-20.80
2019,02,05,03,24,-20.80
2019,02,05,03,25,-20.70
2019,02,05,03,26,-20.70
2019,02,05,03,27,-20.70
2019,02,05,03,28,-20.60
2019,02,05,03,29,-20.60
2019,02,05,03,30,-20.50
2019,02,05,03,31,-20.50
2019,02,05,03,32,-20.50
2019,02,05,03,33,-20.50
2019,02,05,03,34,-20.40
2019,02,05,03,35,-20.20
2019,02,05,03,36,-20.20
2019,02,05,03,37,-20.10
2019,02,05,03,38,-20.10
2019,02,05,03,39,-20.00
2019,02,05,03,40,-20.00
2019,02,05,03,41,-20.00
2019,02,05,03,42,-20.00
2019,02,05,03,43,-19.90
2019,02,05,03,44,-19.90
2019,02,05,03,45,-19.90
2019,02,05,03,46,-19.80
2019,02,05,03,47,-19.80
2019,02,05,03,48,-19.80
2019,02,05,03,49,-19.80
2019,02,05,03,50,-19.80
2019,02,05,03,51,-19.80
2019,02,05,03,52,-19.80
2019,02,05,03,53,-19.80
2019,02,05,03,54,-19.80
2019,02,05,03,55,-19.80
2019,02,05,03,56,-19.80
2019,02,05,03,57,-19.80
2019,02,05,03,58,-19.80
2019,02,05,03,59,-19.80
2019,02,05,04,00,-19.80
2019,02,05,04,01,-19.80
2019,02,05,04,02,-19.80
2019,02,05,04,03,-19.80
2019,02,05,04,04,-19.70
2019,02,05,04,05,-19.70
2019,02,05,04,06,-19.70
2019,02,05,04,07,-19.60
2019,02,05,04,08,-19.60
2019,02,05,04,09,-19.60
2019,02,05,04,10,-19.50
2019,02,05,04,11,-19.50
2019,02,05,04,12,-19.50
2019,02,05,04,13,-19.40
2019,02,05,04,14,-19.40
2019,02,05,04,15,-19.30
2019,02,05,04,16,-19.20
2019,02,05,04,17,-19.10
2019,02,05,04,18,-19.00
2019,02,05,04,19,-18.90
2019,02,05,04,20,-18.80
2019,02,05,04,21,-18.80
2019,02,05,04,22,-18.70
2019,02,05,04,23,-18.50
2019,02,05,04,24,-18.40
2019,02,05,04,25,-18.40
2019,02,05,04,26,-18.30
2019,02,05,04,27,-18.20
2019,02,05,04,28,-18.10
2019,02,05,04,29,-18.00
2019,02,05,04,30,-17.90
2019,02,05,04,31,-17.90
2019,02,05,04,32,-17.80
2019,02,05,04,33,-17.80
2019,02,05,04,34,-17.70
2019,02,05,04,35,-17.70
2019,02,05,04,36,-17.60
2019,02,05,04,37,-17.60
2019,02,05,04,38,-17.50
2019,02,05,04,39,-17.50
2019,02,05,04,40,-17.50
2019,02,05,04,41,-17.40
2019,02,05,04,42,-17.40
2019,02,05,04,43,-17.40
2019,02,05,04,44,-17.40
2019,02,05,04,45,-17.40
2019,02,05,04,46,-17.40
2019,02,05,04,47,-17.40
2019,02,05,04,48,-17.40
2019,02,05,04,49,-17.30
2019,02,05,04,50,-17.30
2019,02,05,04,51,-17.30
2019,02,05,04,52,-17.20
2019,02,05,04,53,-17.20
2019,02,05,04,54,-17.20
2019,02,05,04,55,-17.10
2019,02,05,04,56,-17.10
2019,02,05,04,57,-17.10
2019,02,05,04,58,-17.10
2019,02,05,04,59,-17.00
2019,02,05,05,00,-17.00
2019,02,05,05,01,-17.00
2019,02,05,05,02,-17.00
2019,02,05,05,03,-16.90
2019,02,05,05,04,-16.90
2019,02,05,05,05,-16.90
2019,02,05,05,06,-16.90
2019,02,05,05,07,-16.80
2019,02,05,05,08,-16.70
2019,02,05,05,09,-16.70
2019,02,05,05,10,-16.70
2019,02,05,05,11,-16.60
2019,02,05,05,12,-16.60
2019,02,05,05,13,-16.50
2019,02,05,05,14,-16.50
2019,02,05,05,15,-16.40
2019,02,05,05,16,-16.40
2019,02,05,05,17,-16.30
2019,02,05,05,18,-16.20
2019,02,05,05,19,-16.20
2019,02,05,05,20,-16.10
2019,02,05,05,21,-16.10
2019,02,05,05,22,-16.10
2019,02,05,05,23,-16.00
2019,02,05,05,24,-16.00
2019,02,05,05,25,-16.00
2019,02,05,05,26,-16.00
2019,02,05,05,27,-15.90
2019,02,05,05,28,-15.90
2019,02,05,05,29,-15.80
2019,02,05,05,30,-15.80
2019,02,05,05,31,-15.80
2019,02,05,05,32,-15.80
2019,02,05,05,33,-15.70
2019,02,05,05,34,-15.70
2019,02,05,05,35,-15.70
2019,02,05,05,36,-15.70
2019,02,05,05,37,-15.60
2019,02,05,05,38,-15.60
2019,02,05,05,39,-15.50
2019,02,05,05,40,-15.50
2019,02,05,05,41,-15.50
2019,02,05,05,42,-15.40
2019,02,05,05,43,-15.40
2019,02,05,05,44,-15.40
2019,02,05,05,45,-15.30
2019,02,05,05,46,-15.30
2019,02,05,05,47,-15.30
2019,02,05,05,48,-15.30
2019,02,05,05,49,-15.20
2019,02,05,05,50,-15.20
2019,02,05,05,51,-15.20
2019,02,05,05,52,-15.20
2019,02,05,05,53,-15.20
2019,02,05,05,54,-15.20
2019,02,05,05,55,-15.20
2019,02,05,05,56,-15.20
2019,02,05,05,57,-15.10
2019,02,05,05,58,-15.10
2019,02,05,05,59,-15.10
2019,02,05,06,00,-15.00
2019,02,05,06,01,-15.00
2019,02,05,06,02,-15.00
2019,02,05,06,03,-15.00
2019,02,05,06,04,-15.00
2019,02,05,06,05,-15.00
2019,02,05,06,06,-15.00
2019,02,05,06,07,-15.00
2019,02,05,06,08,-15.00
2019,02,05,06,09,-15.00
2019,02,05,06,10,-15.00
2019,02,05,06,11,-14.90
2019,02,05,06,12,-14.90
2019,02,05,06,13,-14.90
2019,02,05,06,14,-14.90
2019,02,05,06,15,-14.90
2019,02,05,06,16,-14.90
2019,02,05,06,17,-14.90
2019,02,05,06,18,-14.90
2019,02,05,06,19,-14.90
2019,02,05,06,20,-14.90
2019,02,05,06,21,-14.90
2019,02,05,06,22,-14.90
2019,02,05,06,23,-14.90
2019,02,05,06,24,-14.90
2019,02,05,06,25,-14.80
2019,02,05,06,26,-14.80
2019,02,05,06,27,-14.80
2019,02,05,06,28,-14.80
2019,02,05,06,29,-14.70
2019,02,05,06,30,-14.70
2019,02,05,06,31,-14.70
2019,02,05,06,32,-14.70
2019,02,05,06,33,-14.60
2019,02,05,06,34,-14.60
2019,02,05,06,35,-14.50
2019,02,05,06,36,-14.50
2019,02,05,06,37,-14.40
2019,02,05,06,38,-14.40
2019,02,05,06,39,-14.30
2019,02,05,06,40,-14.30
2019,02,05,06,41,-14.20
2019,02,05,06,42,-14.20
2019,02,05,06,43,-14.20
2019,02,05,06,44,-14.20
2019,02,05,06,45,-14.20
2019,02,05,06,46,-14.20
2019,02,05,06,47,-14.20
2019,02,05,06,48,-14.20
2019,02,05,06,49,-14.20
2019,02,05,06,50,-14.20
2019,02,05,06,51,-14.20
2019,02,05,06,52,-14.20
2019,02,05,06,53,-14.10
2019,02,05,06,54,-14.00
2019,02,05,06,55,-14.00
2019,02,05,06,56,-14.00
2019,02,05,06,57,-14.00
2019,02,05,06,58,-14.00
2019,02,05,06,59,-13.90
2019,02,05,07,00,-13.90
2019,02,05,07,01,-13.90
2019,02,05,07,02,-13.90
2019,02,05,07,03,-13.90
2019,02,05,07,04,-13.90
2019,02,05,07,05,-13.90
2019,02,05,07,06,-13.90
2019,02,05,07,07,-13.80
2019,02,05,07,08,-13.80
2019,02,05,07,09,-13.80
2019,02,05,07,10,-13.80
2019,02,05,07,11,-13.70
2019,02,05,07,12,-13.70
2019,02,05,07,13,-13.60
2019,02,05,07,14,-13.60
2019,02,05,07,15,-13.60
2019,02,05,07,16,-13.60
2019,02,05,07,17,-13.50
2019,02,05,07,18,-13.50
2019,02,05,07,19,-13.50
2019,02,05,07,20,-13.50
2019,02,05,07,21,-13.40
2019,02,05,07,22,-13.40
2019,02,05,07,23,-13.40
2019,02,05,07,24,-13.40
2019,02,05,07,25,-13.30
2019,02,05,07,26,-13.30
2019,02,05,07,27,-13.30
2019,02,05,07,28,-13.20
2019,02,05,07,29,-13.20
2019,02,05,07,30,-13.20
2019,02,05,07,31,-13.20
2019,02,05,07,32,-13.20
2019,02,05,07,33,-13.20
2019,02,05,07,34,-13.10
2019,02,05,07,35,-13.10
2019,02,05,07,36,-13.10
2019,02,05,07,37,-13.10
2019,02,05,07,38,-13.10
2019,02,05,07,39,-13.00
2019,02,05,07,40,-13.00
2019,02,05,07,41,-13.00
2019,02,05,07,42,-13.00
2019,02,05,07,43,-13.00
2019,02,05,07,44,-13.00
2019,02,05,07,45,-12.90
2019,02,05,07,46,-12.90
2019,02,05,07,47,-12.80
2019,02,05,07,48,-12.80
2019,02,05,07,49,-12.70
2019,02,05,07,50,-12.70
2019,02,05,07,51,-12.70
2019,02,05,07,52,-12.70
2019,02,05,07,53,-12.70
2019,02,05,07,54,-12.60
2019,02,05,07,55,-12.60
2019,02,05,07,56,-12.60
2019,02,05,07,57,-12.60
2019,02,05,07,58,-12.50
2019,02,05,07,59,-12.50
2019,02,05,08,00,-12.50
2019,02,05,08,01,-12.50
2019,02,05,08,02,-12.40
2019,02,05,08,03,-12.40
2019,02,05,08,04,-12.40
2019,02,05,08,05,-12.40
2019,02,05,08,06,-12.30
2019,02,05,08,07,-12.30
2019,02,05,08,08,-12.30
2019,02,05,08,09,-12.20
2019,02,05,08,10,-12.20
2019,02,05,08,11,-12.20
2019,02,05,08,12,-12.20
2019,02,05,08,13,-12.20
2019,02,05,08,14,-12.20
2019,02,05,08,15,-12.20
2019,02,05,08,16,-12.20
2019,02,05,08,17,-12.20
2019,02,05,08,18,-12.20
2019,02,05,08,19,-12.20
2019,02,05,08,20,-12.10
2019,02,05,08,21,-12.10
2019,02,05,08,22,-12.10
2019,02,05,08,23,-12.00
2019,02,05,08,24,-12.00
2019,02,05,08,25,-12.00
2019,02,05,08,26,-12.00
2019,02,05,08,27,-12.00
2019,02,05,08,28,-12.00
2019,02,05,08,29,-11.90
2019,02,05,08,30,-11.90
2019,02,05,08,31,-11.90
2019,02,05,08,32,-11.90
2019,02,05,08,33,-11.80
2019,02,05,08,34,-11.80
2019,02,05,08,35,-11.80
2019,02,05,08,36,-11.80
2019,02,05,08,37,-11.70
2019,02,05,08,38,-11.70
2019,02,05,08,39,-11.70
2019,02,05,08,40,-11.70
2019,02,05,08,41,-11.70
2019,02,05,08,42,-11.60
2019,02,05,08,43,-11.60
2019,02,05,08,44,-11.60
2019,02,05,08,45,-11.60
2019,02,05,08,46,-11.60
2019,02,05,08,47,-11.60
2019,02,05,08,48,-11.50
2019,02,05,08,49,-11.50
2019,02,05,08,50,-11.50
2019,02,05,08,51,-11.50
2019,02,05,08,52,-11.50
2019,02,05,08,53,-11.50
2019,02,05,08,54,-11.50
2019,02,05,08,55,-11.50
2019,02,05,08,56,-11.50
2019,02,05,08,57,-11.50
2019,02,05,08,58,-11.50
2019,02,05,08,59,-11.50
2019,02,05,09,00,-11.50
2019,02,05,09,01,-11.50
2019,02,05,09,02,-11.60
2019,02,05,09,03,-11.60
2019,02,05,09,04,-11.60
2019,02,05,09,05,-11.60
2019,02,05,09,06,-11.70
2019,02,05,09,07,-11.70
2019,02,05,09,08,-11.70
2019,02,05,09,09,-11.70
2019,02,05,09,10,-11.70
2019,02,05,09,11,-11.80
2019,02,05,09,12,-11.80
2019,02,05,09,13,-11.80
2019,02,05,09,14,-11.80
2019,02,05,09,15,-11.80
2019,02,05,09,16,-11.80
2019,02,05,09,17,-11.80
2019,02,05,09,18,-11.80
2019,02,05,09,19,-11.80
2019,02,05,09,20,-11.80
2019,02,05,09,21,-11.80
2019,02,05,09,22,-11.80
2019,02,05,09,23,-11.80
2019,02,05,09,24,-11.80
2019,02,05,09,25,-11.80
2019,02,05,09,26,-11.80
2019,02,05,09,27,-11.80
2019,02,05,09,28,-11.80
2019,02,05,09,29,-11.80
2019,02,05,09,30,-11.80
2019,02,05,09,31,-11.80
2019,02,05,09,32,-11.80
2019,02,05,09,33,-11.80
2019,02,05,09,34,-11.80
2019,02,05,09,35,-11.80
2019,02,05,09,36,-11.80
2019,02,05,09,37,-11.80
2019,02,05,09,38,-11.80
2019,02,05,09,39,-11.80
2019,02,05,09,40,-11.80
2019,02,05,09,41,-11.80
2019,02,05,09,42,-11.80
2019,02,05,09,43,-11.80
2019,02,05,09,44,-11.80
2019,02,05,09,45,-11.80
2019,02,05,09,46,-11.80
2019,02,05,09,47,-11.80
2019,02,05,09,48,-11.80
2019,02,05,09,49,-11.80
2019,02,05,09,50,-11.80
2019,02,05,09,51,-11.80
2019,02,05,09,52,-11.80
2019,02,05,09,53,-11.80
2019,02,05,09,54,-11.80
2019,02,05,09,55,-11.80
2019,02,05,09,56,-11.80
2019,02,05,09,57,-11.70
2019,02,05,09,58,-11.70
2019,02,05,09,59,-11.70
2019,02,05,10,00,-11.70
2019,02,05,10,01,-11.70
2019,02,05,10,02,-11.70
2019,02,05,10,03,-11.70
2019,02,05,10,04,-11.70
2019,02,05,10,05,-11.70
2019,02,05,10,06,-11.60
2019,02,05,10,07,-11.60
2019,02,05,10,08,-11.60
2019,02,05,10,09,-11.60
2019,02,05,10,10,-11.50
2019,02,05,10,11,-11.50
2019,02,05,10,12,-11.50
2019,02,05,10,13,-11.50
2019,02,05,10,14,-11.40
2019,02,05,10,15,-11.40
2019,02,05,10,16,-11.30
2019,02,05,10,17,-11.30
2019,02,05,10,18,-11.30
2019,02,05,10,19,-11.20
2019,02,05,10,20,-11.20
2019,02,05,10,21,-11.10
2019,02,05,10,22,-11.10
2019,02,05,10,23,-11.00
2019,02,05,10,24,-11.00
2019,02,05,10,25,-10.90
2019,02,05,10,26,-10.80
2019,02,05,10,27,-10.80
2019,02,05,10,28,-10.70
2019,02,05,10,29,-10.70
2019,02,05,10,30,-10.70
2019,02,05,10,31,-10.60
2019,02,05,10,32,-10.60
2019,02,05,10,33,-10.60
2019,02,05,10,34,-10.50
2019,02,05,10,35,-10.50
2019,02,05,10,36,-10.50
2019,02,05,10,37,-10.40
2019,02,05,10,38,-10.40
2019,02,05,10,39,-10.40
2019,02,05,10,40,-10.40
2019,02,05,10,41,-10.40
2019,02,05,10,42,-10.40
2019,02,05,10,43,-10.40
2019,02,05,10,44,-10.30
2019,02,05,10,45,-10.30
2019,02,05,10,46,-10.30
2019,02,05,10,47,-10.30
2019,02,05,10,48,-10.30
2019,02,05,10,49,-10.30
2019,02,05,10,50,-10.20
2019,02,05,10,51,-10.20
2019,02,05,10,52,-10.20
2019,02,05,10,53,-10.20
2019,02,05,10,54,-10.20
2019,02,05,10,55,-10.20
2019,02,05,10,56,-10.10
2019,02,05,10,57,-10.10
2019,02,05,10,58,-10.10
2019,02,05,10,59,-10.00
2019,02,05,11,00,-10.00
2019,02,05,11,01,-10.00
2019,02,05,11,02,-10.00
2019,02,05,11,03,-10.00
2019,02,05,11,04,-10.00
2019,02,05,11,05,-10.00
2019,02,05,11,06,-9.90
2019,02,05,11,07,-9.90
2019,02,05,11,08,-9.90
2019,02,05,11,09,-9.90
2019,02,05,11,10,-9.90
2019,02,05,11,11,-9.90
2019,02,05,11,12,-9.90
2019,02,05,11,13,-9.80
2019,02,05,11,14,-9.80
2019,02,05,11,15,-9.80
2019,02,05,11,16,-9.80
2019,02,05,11,17,-9.80
2019,02,05,11,18,-9.80
2019,02,05,11,19,-9.70
2019,02,05,11,20,-9.80
2019,02,05,11,21,-9.80
2019,02,05,11,22,-9.80
2019,02,05,11,23,-9.80
2019,02,05,11,24,-9.80
2019,02,05,11,25,-9.90
2019,02,05,11,26,-9.90
2019,02,05,11,27,-9.90
2019,02,05,11,28,-10.00
2019,02,05,11,29,-10.00
2019,02,05,11,30,-10.00
2019,02,05,11,31,-10.00
2019,02,05,11,32,-10.10
2019,02,05,11,33,-10.10
2019,02,05,11,34,-10.10
2019,02,05,11,35,-10.00
2019,02,05,11,36,-10.00
2019,02,05,11,37,-10.00
2019,02,05,11,38,-10.00
2019,02,05,11,39,-10.00
2019,02,05,11,40,-9.90
2019,02,05,11,41,-9.90
2019,02,05,11,42,-9.90
2019,02,05,11,43,-9.80
2019,02,05,11,44,-9.80
2019,02,05,11,45,-9.80
2019,02,05,11,46,-9.70
2019,02,05,11,47,-9.70
2019,02,05,11,48,-9.60
2019,02,05,11,49,-9.60
2019,02,05,11,50,-9.50
2019,02,05,11,51,-9.50
2019,02,05,11,52,-9.40
2019,02,05,11,53,-9.40
2019,02,05,11,54,-9.40
2019,02,05,11,55,-9.30
2019,02,05,11,56,-9.30
2019,02,05,11,57,-9.30
2019,02,05,11,58,-9.30
2019,02,05,11,59,-9.30
2019,02,05,12,00,-9.30
2019,02,05,12,01,-9.30
2019,02,05,12,02,-9.30
2019,02,05,12,03,-9.20
2019,02,05,12,04,-9.20
2019,02,05,12,05,-9.20
2019,02,05,12,06,-9.20
2019,02,05,12,07,-9.10
2019,02,05,12,08,-9.10
2019,02,05,12,09,-9.00
2019,02,05,12,10,-9.00
2019,02,05,12,11,-8.90
2019,02,05,12,12,-8.90
2019,02,05,12,13,-8.90
2019,02,05,12,14,-8.90
2019,02,05,12,15,-8.80
2019,02,05,12,16,-8.80
2019,02,05,12,17,-8.80
2019,02,05,12,18,-8.80
2019,02,05,12,19,-8.70
2019,02,05,12,20,-8.70
2019,02,05,12,21,-8.60
2019,02,05,12,22,-8.60
2019,02,05,12,23,-8.60
2019,02,05,12,24,-8.50
2019,02,05,12,25,-8.40
2019,02,05,12,26,-8.40
2019,02,05,12,27,-8.30
2019,02,05,12,28,-8.20
2019,02,05,12,29,-8.20
2019,02,05,12,30,-8.10
2019,02,05,12,31,-8.10
2019,02,05,12,32,-8.00
2019,02,05,12,33,-8.00
2019,02,05,12,34,-7.90
2019,02,05,12,35,-7.90
2019,02,05,12,36,-7.80
2019,02,05,12,37,-7.80
2019,02,05,12,38,-7.80
2019,02,05,12,39,-7.70
2019,02,05,12,40,-7.70
2019,02,05,12,41,-7.60
2019,02,05,12,42,-7.60
2019,02,05,12,43,-7.60
2019,02,05,12,44,-7.50
2019,02,05,12,45,-7.50
2019,02,05,12,46,-7.50
2019,02,05,12,47,-7.40
2019,02,05,12,48,-7.40
2019,02,05,12,49,-7.30
2019,02,05,12,50,-7.30
2019,02,05,12,51,-7.20
2019,02,05,12,52,-7.20
2019,02,05,12,53,-7.10
2019,02,05,12,54,-7.10
2019,02,05,12,55,-7.10
2019,02,05,12,56,-7.10
2019,02,05,12,57,-7.00
2019,02,05,12,58,-7.00
2019,02,05,12,59,-6.90
2019,02,05,13,00,-6.90
2019,02,05,13,01,-6.80
2019,02,05,13,02,-6.80
2019,02,05,13,03,-6.70
2019,02,05,13,04,-6.70
2019,02,05,13,05,-6.70
2019,02,05,13,06,-6.60
2019,02,05,13,07,-6.60
2019,02,05,13,08,-6.60
2019,02,05,13,09,-6.50
2019,02,05,13,10,-6.40
2019,02,05,13,11,-6.40
2019,02,05,13,12,-6.30
2019,02,05,13,13,-6.30
2019,02,05,13,14,-6.20
2019,02,05,13,15,-6.20
2019,02,05,13,16,-6.20
2019,02,05,13,17,-6.20
2019,02,05,13,18,-6.10
2019,02,05,13,19,-6.10
2019,02,05,13,20,-6.00
2019,02,05,13,21,-6.00
2019,02,05,13,22,-5.90
2019,02,05,13,23,-5.90
2019,02,05,13,24,-5.80
2019,02,05,13,25,-5.70
2019,02,05,13,26,-5.60
2019,02,05,13,27,-5.60
2019,02,05,13,28,-5.50
2019,02,05,13,29,-5.40
2019,02,05,13,30,-5.40
2019,02,05,13,31,-5.30
2019,02,05,13,32,-5.30
2019,02,05,13,33,-5.30
2019,02,05,13,34,-5.20
2019,02,05,13,35,-5.20
2019,02,05,13,36,-5.20
2019,02,05,13,37,-5.20
2019,02,05,13,38,-5.10
2019,02,05,13,39,-5.10
2019,02,05,13,40,-5.10
2019,02,05,13,41,-5.00
2019,02,05,13,42,-5.00
2019,02,05,13,43,-5.00
2019,02,05,13,44,-5.00
2019,02,05,13,45,-4.90
2019,02,05,13,46,-4.90
2019,02,05,13,47,-4.90
2019,02,05,13,48,-4.90
2019,02,05,13,49,-4.80
2019,02,05,13,50,-4.80
2019,02,05,13,51,-4.70
2019,02,05,13,52,-4.70
2019,02,05,13,53,-4.70
2019,02,05,13,54,-4.60
2019,02,05,13,55,-4.60
2019,02,05,13,56,-4.60
2019,02,05,13,57,-4.60
2019,02,05,13,58,-4.60
2019,02,05,13,59,-4.60
2019,02,05,14,00,-4.60
2019,02,05,14,01,-4.60
2019,02,05,14,02,-4.60
2019,02,05,14,03,-4.60
2019,02,05,14,04,-4.60
2019,02,05,14,05,-4.60
2019,02,05,14,06,-4.60
2019,02,05,14,07,-4.50
2019,02,05,14,08,-4.50
2019,02,05,14,09,-4.50
2019,02,05,14,10,-4.50
2019,02,05,14,11,-4.50
2019,02,05,14,12,-4.50
2019,02,05,14,13,-4.60
2019,02,05,14,14,-4.60
2019,02,05,14,15,-4.70
2019,02,05,14,16,-4.70
2019,02,05,14,17,-4.80
2019,02,05,14,18,-4.80
2019,02,05,14,19,-4.80
2019,02,05,14,20,-4.80
2019,02,05,14,21,-4.80
2019,02,05,14,22,-4.80
2019,02,05,14,23,-4.80
2019,02,05,14,24,-4.80
2019,02,05,14,25,-4.80
2019,02,05,14,26,-4.80
2019,02,05,14,27,-4.80
2019,02,05,14,28,-4.70
2019,02,05,14,29,-4.70
2019,02,05,14,30,-4.80
2019,02,05,14,31,-4.80
2019,02,05,14,32,-4.80
2019,02,05,14,33,-4.80
2019,02,05,14,34,-4.80
2019,02,05,14,35,-4.80
2019,02,05,14,36,-4.80
2019,02,05,14,37,-4.80
2019,02,05,14,38,-4.80
2019,02,05,14,39,-4.80
2019,02,05,14,40,-4.80
2019,02,05,14,41,-4.70
2019,02,05,14,42,-4.70
2019,02,05,14,43,-4.70
2019,02,05,14,44,-4.70
2019,02,05,14,45,-4.70
2019,02,05,14,46,-4.70
2019,02,05,14,47,-4.60
2019,02,05,14,48,-4.60
2019,02,05,14,49,-4.60
2019,02,05,14,50,-4.60
2019,02,05,14,51,-4.60
2019,02,05,14,52,-4.50
2019,02,05,14,53,-4.50
2019,02,05,14,54,-4.50
2019,02,05,14,55,-4.50
2019,02,05,14,56,-4.50
2019,02,05,14,57,-4.50
2019,02,05,14,58,-4.50
2019,02,05,14,59,-4.50
2019,02,05,15,00,-4.40
2019,02,05,15,01,-4.40
2019,02,05,15,02,-4.40
2019,02,05,15,03,-4.40
2019,02,05,15,04,-4.40
2019,02,05,15,05,-4.40
2019,02,05,15,06,-4.30
2019,02,05,15,07,-4.30
2019,02,05,15,08,-4.30
2019,02,05,15,09,-4.30
2019,02,05,15,10,-4.30
2019,02,05,15,11,-4.30
2019,02,05,15,12,-4.20
2019,02,05,15,13,-4.20
2019,02,05,15,14,-4.10
2019,02,05,15,15,-4.10
2019,02,05,15,16,-4.10
2019,02,05,15,17,-4.10
2019,02,05,15,18,-4.10
2019,02,05,15,19,-4.10
2019,02,05,15,20,-4.10
2019,02,05,15,21,-4.00
2019,02,05,15,22,-4.00
2019,02,05,15,23,-4.00
2019,02,05,15,24,-3.90
2019,02,05,15,25,-3.90
2019,02,05,15,26,-3.90
2019,02,05,15,27,-3.80
2019,02,05,15,28,-3.80
2019,02,05,15,29,-3.80
2019,02,05,15,30,-3.80
2019,02,05,15,31,-3.80
2019,02,05,15,32,-3.80
2019,02,05,15,33,-3.80
2019,02,05,15,34,-3.70
2019,02,05,15,35,-3.70
2019,02,05,15,36,-3.70
2019,02,05,15,37,-3.70
2019,02,05,15,38,-3.70
2019,02,05,15,39,-3.70
2019,02,05,15,40,-3.70
2019,02,05,15,41,-3.60
2019,02,05,15,42,-3.60
2019,02,05,15,43,-3.60
2019,02,05,15,44,-3.50
2019,02,05,15,45,-3.50
2019,02,05,15,46,-3.50
2019,02,05,15,47,-3.40
2019,02,05,15,48,-3.40
2019,02,05,15,49,-3.30
2019,02,05,15,50,-3.30
2019,02,05,15,51,-3.30
2019,02,05,15,52,-3.20
2019,02,05,15,53,-3.20
2019,02,05,15,54,-3.20
2019,02,05,15,55,-3.20
2019,02,05,15,56,-3.10
2019,02,05,15,57,-3.10
2019,02,05,15,58,-3.10
2019,02,05,15,59,-3.10
2019,02,05,16,00,-3.10
2019,02,05,16,01,-3.10
2019,02,05,16,02,-3.10
2019,02,05,16,03,-3.10
2019,02,05,16,04,-3.10
2019,02,05,16,05,-3.10
2019,02,05,16,06,-3.10
2019,02,05,16,07,-3.10
2019,02,05,16,08,-3.00
2019,02,05,16,09,-3.00
2019,02,05,16,10,-3.00
2019,02,05,16,11,-3.00
2019,02,05,16,12,-3.00
2019,02,05,16,13,-2.90
2019,02,05,16,14,-2.90
2019,02,05,16,15,-2.80
2019,02,05,16,16,-2.80
2019,02,05,16,17,-2.80
2019,02,05,16,18,-2.80
2019,02,05,16,19,-2.70
2019,02,05,16,20,-2.70
2019,02,05,16,21,-2.70
2019,02,05,16,22,-2.60
2019,02,05,16,23,-2.60
2019,02,05,16,24,-2.60
2019,02,05,16,25,-2.60
2019,02,05,16,26,-2.60
2019,02,05,16,27,-2.60
2019,02,05,16,28,-2.60
2019,02,05,16,29,-2.60
2019,02,05,16,30,-2.60
2019,02,05,16,31,-2.60
2019,02,05,16,32,-2.60
2019,02,05,16,33,-2.50
2019,02,05,16,34,-2.50
2019,02,05,16,35,-2.50
2019,02,05,16,36,-2.50
2019,02,05,16,37,-2.50
2019,02,05,16,38,-2.50
2019,02,05,16,39,-2.50
2019,02,05,16,40,-2.50
2019,02,05,16,41,-2.50
2019,02,05,16,42,-2.50
2019,02,05,16,43,-2.50
2019,02,05,16,44,-2.50
2019,02,05,16,45,-2.40
2019,02,05,16,46,-2.40
2019,02,05,16,47,-2.40
2019,02,05,16,48,-2.30
2019,02,05,16,49,-2.30